Regional Weather Roundup
Issued by NWS Little Rock, AR

Home | Current Version | Previous Version | Graphics & Text | Print | Product List | Glossary On
Versions: 1 2 3 4 5 6 7 8 9 10 11 12 13 14 15 16 17 18 19 20 21 22 23 24 25 26 27 28 29 30 31 32
000
ASUS44 KLZK 020705
RWRLZK

WEATHER ROUNDUP FOR ARKANSAS
NATIONAL WEATHER SERVICE LITTLE ROCK AR
100 AM CST FRI DEC 02 2016

NOTE: "FAIR" INDICATES FEW OR NO CLOUDS BELOW 12,000 FEET WITH NO
SIGNIFICANT WEATHER AND/OR OBSTRUCTIONS TO VISIBILITY.

ARZ001-003-010-029-020800-
NORTHWEST ARKANSAS

CITY           SKY/WX    TMP DP  RH WIND       PRES   REMARKS
FAYETTEVILLE   CLEAR     28  26  92 CALM      30.12S
FORT SMITH     PTCLDY    39  30  70 NE3       30.13S
HARRISON       CLEAR     37  25  61 CALM      30.13R
BENTONVILLE    CLEAR     34  23  64 CALM      30.12S
ROGERS         PTCLDY    37  30  75 SE5       30.12S
SILOAM SPGS    CLOUDY    37  25  60 E5        30.11R
HIGHFILL       MOCLDY    34  25  69 CALM      30.11R
$$

ARZ004-005-016-020800-
NORTH CENTRAL ARKANSAS

CITY           SKY/WX    TMP DP  RH WIND       PRES   REMARKS
BATESVILLE     CLEAR     43  27  52 W3        30.16R
FLIPPIN        CLEAR     32  27  80 NE3       30.11S
MTN HOME       CLEAR     37  26  64 CALM      30.13R
$$

ARZ040-041-020800-
WEST CENTRAL ARKANSAS

CITY           SKY/WX    TMP DP  RH WIND       PRES   REMARKS
MENA           CLEAR     32  32 100 CALM      30.14S
MOUNT IDA      CLEAR     32  30  92 CALM      30.12S
$$

ARZ009-017-025-026-028-020800-
NORTHEAST ARKANSAS

CITY           SKY/WX    TMP DP  RH WIND       PRES   REMARKS
CORNING        FAIR      36  32  87 N5        30.16R
JONESBORO      CLEAR     35  32  88 CALM      30.15R
NEWPORT        CLEAR     40  32  73 SW5       30.16R
WALNUT RIDGE   CLEAR     36  28  75 NW3       30.15R
BLYTHEVILLE    CLEAR     38  30  73 S5        30.15R
$$

ARZ022-023-033-042-044-020800-
CENTRAL ARKANSAS

CITY           SKY/WX    TMP DP  RH WIND       PRES   REMARKS
LITTLE ROCK    CLEAR     39  32  76 CALM      30.17R
N LITTLE ROCK    N/A     46  29  51 SW5       30.18R
JACKSONVILLE   PTCLDY    32  29  90 CALM      30.16R
SEARCY         CLEAR     32  31  96 CALM      30.18R
HOT SPRINGS    CLEAR     35  32  88 CALM      30.16S
RUSSELLVILLE   CLEAR     32  30  92 CALM      30.15R
$$

ARZ036-020800-
EAST ARKANSAS

CITY           SKY/WX    TMP DP  RH WIND       PRES   REMARKS
WEST MEMPHIS   CLEAR     37  29  72 S6        30.15R
$$

ARZ050-053-066-070-073-020800-
SOUTHWEST ARKANSAS

CITY           SKY/WX    TMP DP  RH WIND       PRES   REMARKS
ARKADELPHIA    FAIR      35  35 100 CALM      30.18R
CAMDEN         PTCLDY    32  32 100 CALM      30.17S
TEXARKANA      CLEAR     40  32  73 CALM      30.14S
EL DORADO      CLEAR     37  34  89 CALM      30.17R
DE QUEEN       CLEAR     34  34 100 NE3       30.13S
$$

ARZ056-057-069-020800-
SOUTHEAST ARKANSAS

CITY           SKY/WX    TMP DP  RH WIND       PRES   REMARKS
PINE BLUFF     CLEAR     40  32  73 S3        30.18R
STUTTGART      CLEAR     39  30  70 SW8       30.17R
MONTICELLO     CLEAR     39  33  79 CALM      30.17R

$$






USA.gov is the U.S. government's official web portal to all federal, state and local government web resources and services.